CW1053 Weather Reports


time (UTC)temp
C
wind
direction
speed
KPH
gust
KPH
rain 1hr
cm
rain 24hr
cm
rain mn
cm
humidity
%
barometer
mb
20260503220502 15 231 1.6 4.8 0.00 0.00 0.00 29 1011.4
20260503220013 15 286 1.6 8.0 0.00 0.00 0.00 31 1011.5
20260503215507 15 266 3.2 8.0 0.00 0.00 0.00 28 1011.4
20260503215002 15 258 3.2 8.0 0.00 0.00 0.00 29 1011.5
20260503214512 15 256 4.8 8.0 0.00 0.00 0.00 29 1011.5
20260503214009 15 257 1.6 8.0 0.00 0.00 0.00 30 1011.5
20260503213503 15 246 3.2 9.7 0.00 0.00 0.00 29 1011.5
20260503213005 15 270 1.6 9.7 0.00 0.00 0.00 29 1011.4
20260503212503 15 273 4.8 8.0 0.00 0.00 0.00 28 1011.4
20260503212003 15 253 3.2 6.4 0.00 0.00 0.00 29 1011.3
20260503211508 15 255 1.6 8.0 0.00 0.00 0.00 29 1011.4
20260503211010 16 256 3.2 9.7 0.00 0.00 0.00 29 1011.5
20260503210506 16 238 4.8 9.7 0.00 0.00 0.00 28 1011.4
20260503210012 16 269 1.6 9.7 0.00 0.00 0.00 29 1011.3
20260503205508 15 240 3.2 9.7 0.00 0.00 0.00 30 1011.3
20260503205006 16 208 4.8 9.7 0.00 0.00 0.00 29 1011.2
20260503204509 16 278 1.6 6.4 0.00 0.00 0.00 30 1011.3
20260503204005 16 261 1.6 9.7 0.00 0.00 0.00 29 1011.2
20260503203505 16 236 3.2 9.7 0.00 0.00 0.00 29 1011.3
20260503203009 16 273 3.2 9.7 0.00 0.00 0.00 28 1011.1
20260503202507 15 236 1.6 14.5 0.00 0.00 0.00 31 1011.2
20260503202003 15 255 1.6 14.5 0.00 0.00 0.00 31 1011.1
20260503201505 15 298 3.2 12.9 0.00 0.00 0.00 30 1011.2
20260503201003 15 271 4.8 12.9 0.00 0.00 0.00 29 1011.3
20260503200505 15 216 3.2 8.0 0.00 0.00 0.00 30 1011.1
20260503200008 15 307 1.6 8.0 0.00 0.00 0.00 30 1011.2
20260503195506 15 233 3.2 8.0 0.00 0.00 0.00 30 1011.4
20260503195006 15 216 1.6 6.4 0.00 0.00 0.00 30 1011.3
20260503194514 15 212 1.6 6.4 0.00 0.00 0.00 32 1011.2
20260503194006 15 289 1.6 6.4 0.00 0.00 0.00 33 1011.4
20260503193504 14 252 3.2 6.4 0.00 0.00 0.00 33 1011.6
20260503193015 14 260 1.6 6.4 0.00 0.00 0.00 35 1011.7
20260503192506 14 236 3.2 8.0 0.00 0.00 0.00 32 1011.8
20260503192007 13 277 1.6 16.1 0.00 0.00 0.00 32 1011.9
20260503191514 13 218 6.4 16.1 0.00 0.00 0.00 33 1012.0
20260503191010 13 246 4.8 11.3 0.00 0.00 0.00 31 1011.9
20260503190504 14 251 3.2 14.5 0.00 0.00 0.00 31 1011.9
20260503190010 13 268 3.2 14.5 0.00 0.00 0.00 33 1012.0
20260503185503 13 276 1.6 11.3 0.00 0.00 0.00 36 1012.1
20260503185003 13 241 4.8 11.3 0.00 0.00 0.00 33 1012.0
20260503184516 13 241 4.8 11.3 0.00 0.00 0.00 33 1012.2
20260503184003 13 254 3.2 8.0 0.00 0.00 0.00 35 1012.2
20260503183503 13 231 4.8 8.0 0.00 0.00 0.00 34 1012.3
20260503183018 13 250 3.2 6.4 0.00 0.00 0.00 36 1012.5
20260503182507 13 258 1.6 9.7 0.00 0.00 0.00 37 1012.6
20260503182012 12 222 3.2 9.7 0.00 0.00 0.00 37 1012.6
20260503181514 12 259 3.2 11.3 0.00 0.00 0.00 38 1012.7
20260503181007 12 314 3.2 11.3 0.00 0.00 0.00 37 1012.7
20260503180504 12 218 6.4 11.3 0.00 0.00 0.00 36 1012.5
20260503180014 12 218 4.8 9.7 0.00 0.00 0.00 37 1012.6
20260503175503 12 264 1.6 8.0 0.00 0.00 0.00 39 1012.7
20260503175003 12 236 3.2 14.5 0.00 0.00 0.00 38 1012.7
20260503174512 12 252 3.2 14.5 0.00 0.00 0.00 39 1012.8
20260503174003 12 245 4.8 11.3 0.00 0.00 0.00 38 1012.7
20260503173504 12 244 4.8 9.7 0.00 0.00 0.00 39 1012.8
20260503173014 11 275 3.2 11.3 0.00 0.00 0.00 40 1012.7
20260503172509 11 249 3.2 14.5 0.00 0.00 0.00 38 1012.7
20260503172004 11 273 3.2 14.5 0.00 0.00 0.00 39 1012.8
20260503171514 12 209 3.2 11.3 0.00 0.00 0.00 40 1012.8
20260503171008 12 247 1.6 11.3 0.00 0.00 0.00 39 1012.8
20260503170504 11 268 4.8 8.0 0.00 0.00 0.00 40 1012.8
20260503151007 11 234 3.2 8.0 0.00 0.00 0.00 42 1013.3
20260503150508 11 271 3.2 6.4 0.00 0.00 0.00 42 1013.3
20260503131003 10 298 1.6 9.7 0.00 0.00 0.00 51 1013.2
20260503130506 9 238 3.2 9.7 0.00 0.00 0.00 50 1013.2
20260503110504 7 304 1.6 6.4 0.00 0.00 0.00 54 1012.6
20260503090509 8 297 0.0 4.8 0.00 0.00 0.00 51 1011.0
20260503081520 8 311 0.0 8.0 0.00 0.00 0.00 49 1011.0
20260503081010 8 302 3.2 8.0 0.00 0.00 0.00 48 1010.9
20260503080509 8 290 3.2 6.4 0.00 0.00 0.00 48 1010.9
20260503072504 8 309 0.0 3.2 0.00 0.00 0.00 50 1011.0
20260503072007 8 312 0.0 0.0 0.00 0.00 0.00 51 1010.9
20260503071521 8 312 0.0 0.0 0.00 0.00 0.00 49 1010.9
20260503071004 8 313 0.0 0.0 0.00 0.00 0.00 49 1010.8
20260503070508 8 312 0.0 0.0 0.00 0.00 0.00 48 1010.8
20260503055009 10 305 0.0 4.8 0.00 0.00 0.00 44 1011.1
20260503054534 10 300 0.0 4.8 0.00 0.00 0.00 44 1011.2
20260503054010 10 283 0.0 4.8 0.00 0.00 0.00 44 1011.1
20260503053502 10 299 1.6 6.4 0.00 0.00 0.00 44 1011.1
20260503053009 10 311 3.2 6.4 0.00 0.00 0.00 43 1011.1
20260503052503 10 305 0.0 3.2 0.00 0.00 0.00 44 1011.1
20260503052008 10 304 1.6 3.2 0.00 0.00 0.00 44 1011.2
20260503051513 10 307 0.0 3.2 0.00 0.00 0.00 45 1011.2
20260503051003 10 306 0.0 6.4 0.00 0.00 0.00 44 1011.2
20260503050506 10 312 0.0 6.4 0.00 0.00 0.00 45 1011.4
20260503050028 10 305 1.6 4.8 0.00 0.00 0.00 43 1011.4
20260503045507 10 310 0.0 4.8 0.00 0.00 0.00 45 1011.5
20260503045009 10 308 0.0 3.2 0.00 0.00 0.00 44 1011.5
20260503044523 10 299 0.0 3.2 0.00 0.00 0.00 43 1011.6
20260503044010 10 300 1.6 3.2 0.00 0.00 0.00 43 1011.5
20260503043510 10 306 0.0 3.2 0.00 0.00 0.00 44 1011.6
20260503043030 10 300 1.6 3.2 0.00 0.00 0.00 45 1011.6
20260503042509 10 307 0.0 3.2 0.00 0.00 0.00 47 1011.6
20260503042003 10 318 0.0 0.0 0.00 0.00 0.00 47 1011.5
20260503041510 10 318 0.0 0.0 0.00 0.00 0.00 47 1011.6
20260503041002 10 318 0.0 0.0 0.00 0.00 0.00 48 1011.6
20260503040505 10 290 0.0 0.0 0.00 0.00 0.00 49 1011.6
20260503040017 10 290 0.0 0.0 0.00 0.00 0.00 49 1011.6
20260503035505 10 290 0.0 0.0 0.00 0.00 0.00 49 1011.6
20260503035006 10 290 0.0 0.0 0.00 0.00 0.00 49 1011.7
20260503034522 10 290 0.0 0.0 0.00 0.00 0.00 49 1011.6
20260503034010 10 290 0.0 0.0 0.00 0.00 0.00 46 1011.6
20260503033507 10 290 0.0 0.0 0.00 0.00 0.00 46 1011.5
20260503033025 10 290 0.0 0.0 0.00 0.00 0.00 46 1011.5
20260503032511 10 290 0.0 0.0 0.00 0.00 0.00 46 1011.5
20260503032010 10 290 0.0 0.0 0.00 0.00 0.00 46 1011.5
20260503031528 11 290 0.0 0.0 0.00 0.00 0.00 45 1011.6
20260503031003 11 290 0.0 0.0 0.00 0.00 0.00 45 1011.6
20260503030502 11 290 0.0 0.0 0.00 0.00 0.00 43 1011.5
20260503030012 11 290 0.0 0.0 0.00 0.00 0.00 44 1011.6
20260503025503 11 290 0.0 0.0 0.00 0.00 0.00 42 1011.5
20260503025007 11 290 0.0 0.0 0.00 0.00 0.00 42 1011.5
20260503024518 11 290 0.0 1.6 0.00 0.00 0.00 41 1011.2
20260503024007 11 290 0.0 1.6 0.00 0.00 0.00 41 1011.4
20260503023510 11 297 0.0 0.0 0.00 0.00 0.00 41 1011.5
20260503023022 11 297 0.0 4.8 0.00 0.00 0.00 40 1011.5
20260503022507 11 307 0.0 4.8 0.00 0.00 0.00 40 1011.6
20260503022010 11 307 0.0 4.8 0.00 0.00 0.00 41 1011.5
20260503021525 11 287 0.0 1.6 0.00 0.00 0.00 42 1011.5
20260503021010 11 287 0.0 0.0 0.00 0.00 0.00 42 1011.5
20260503020511 12 287 0.0 1.6 0.00 0.00 0.00 42 1011.4
20260503020028 12 275 0.0 1.6 0.00 0.00 0.00 42 1011.3
20260503015503 12 264 0.0 4.8 0.00 0.00 0.00 42 1011.3
20260503015006 12 311 0.0 4.8 0.00 0.00 0.00 40 1011.3
20260503014514 12 304 0.0 3.2 0.00 0.00 0.00 41 1011.3
20260503014005 12 309 0.0 1.6 0.00 0.00 0.00 41 1011.3
20260503013507 12 309 0.0 4.8 0.00 0.00 0.00 42 1011.3
20260503013023 12 309 0.0 4.8 0.00 0.00 0.00 42 1011.3
20260503012511 12 305 0.0 0.0 0.00 0.00 0.00 43 1011.3
20260503012009 12 280 0.0 0.0 0.00 0.00 0.00 43 1011.3
20260503011526 12 299 0.0 1.6 0.00 0.00 0.00 43 1011.2
20260503011007 12 298 0.0 3.2 0.00 0.00 0.00 42 1011.2
20260503010508 12 298 0.0 3.2 0.00 0.00 0.00 42 1011.2
20260503010032 12 262 0.0 0.0 0.00 0.00 0.00 41 1011.0
20260503005511 12 262 0.0 0.0 0.00 0.00 0.00 41 1010.9
20260503005011 12 262 0.0 1.6 0.00 0.00 0.00 40 1010.9
20260503004513 12 262 0.0 1.6 0.00 0.00 0.00 40 1010.9
20260503004011 13 262 0.0 1.6 0.00 0.00 0.00 40 1010.8
20260503003506 13 262 0.0 0.0 0.00 0.00 0.00 40 1010.9
20260503003016 13 262 0.0 0.0 0.00 0.00 0.00 39 1010.8
20260503002507 13 262 0.0 0.0 0.00 0.00 0.00 39 1010.8
20260503002007 13 262 0.0 0.0 0.00 0.00 0.00 39 1010.7
20260503001524 13 262 0.0 1.6 0.00 0.00 0.00 39 1010.7
20260503001007 13 262 0.0 3.2 0.00 0.00 0.00 39 1010.8
20260503000507 13 261 0.0 4.8 0.00 0.00 0.00 39 1010.7
20260503000026 13 263 1.6 4.8 0.00 0.00 0.00 38 1010.7
20260502235507 13 290 0.0 0.0 0.00 0.00 0.00 40 1010.6
20260502235012 13 290 0.0 0.0 0.00 0.00 0.00 39 1010.7
20260502234532 13 290 0.0 1.6 0.00 0.00 0.00 40 1010.6
20260502234014 13 290 0.0 1.6 0.00 0.00 0.00 38 1010.6
20260502233516 13 291 0.0 1.6 0.00 0.00 0.00 39 1010.6
20260502233018 14 292 0.0 0.0 0.00 0.00 0.00 38 1010.7
20260502232506 14 292 0.0 0.0 0.00 0.00 0.00 39 1010.7
20260502232011 14 292 0.0 0.0 0.00 0.00 0.00 40 1010.7
20260502231519 14 292 0.0 0.0 0.00 0.00 0.00 38 1010.6
20260502231008 14 292 0.0 0.0 0.00 0.00 0.00 39 1010.6
20260502230506 14 307 0.0 0.0 0.00 0.00 0.00 39 1010.6
20260502230029 14 307 0.0 0.0 0.00 0.00 0.00 41 1010.6
20260502225507 14 307 0.0 4.8 0.00 0.00 0.00 39 1010.6
20260502225012 14 307 0.0 4.8 0.00 0.00 0.00 38 1010.4
20260502224526 14 290 0.0 0.0 0.00 0.00 0.00 38 1010.5
20260502224007 14 285 0.0 0.0 0.00 0.00 0.00 39 1010.6
20260502223510 14 306 0.0 0.0 0.00 0.00 0.00 38 1010.4
20260502223028 14 306 0.0 3.2 0.00 0.00 0.00 38 1010.4
20260502222506 15 306 0.0 3.2 0.00 0.00 0.00 38 1010.3
20260502222007 15 308 0.0 3.2 0.00 0.00 0.00 37 1010.3
20260502221517 15 276 0.0 3.2 0.00 0.00 0.00 37 1010.3
20260502221005 15 266 0.0 0.0 0.00 0.00 0.00 39 1010.4